Starlink 6338

operational
NORAD ID: 57364 Int'l Des: 2023-099 Owner: SPXS Country: US Constellation: starlink
LEOCIRCULAR

Über Starlink 6338

Beschreibung wird geladen...

Live-Position

3D-Globus wird geladen...

Nächste Überflüge

Höhenverlauf

Altitude vs Time

uPlot chart will show altitude changes over time

Zweizeiliger Elementsatz

1 57364U 23099AN 25306.43657448 .00000232 00000-0 32219-4 0 9993
2 57364 43.0034 207.4660 0001204 269.5613 90.5091 15.02537183127127
Epoch: 2. Nov. 2025 • Age: 33 hours

Aktueller Status

Höhe 571.0 km
Geschwindigkeit 7.58 km/s
Subsatellitenpunkt -41.63°S, 115.23°E
Startdatum 16. Juli 2023
Alter 2.3 years
Typ internet

Technische Details

Klassifizierung Payload
Masse 305.00 kg
Trockenmasse 290.00 kg
Gesamtmasse 305.00 kg
Länge 0.20 m
Durchmesser 2.80 m
Spannweite 9.00 m
Form Box + pan
Hersteller SPXS
Bus-Typ Starlink
Phasenstatus In Orbit
Besitzer/Staat SPXS/US

Große Konstellationen

Loading constellations...